Mobile, AL

7:36 PM CST on December 17, 2017 (GMT -0600)
Mobile Regional

Weather History for KMOB - February, 2012

Change the Weather History Date:

Sunday, February 26, 2012

  Actual Average Record
Temperature  
Mean Temperature 55 °F 56 °F  
Max Temperature 60 °F 67 °F 81 °F (1972)
Min Temperature 49 °F 46 °F 25 °F (1974)
Degree Days  
Heating Degree Days 10 9  
Month to date heating degree days 197 304  
Since 1 July heating degree days 1070 1425  
Cooling Degree Days 0 0  
Month to date cooling degree days 12 0  
Year to date cooling degree days 39 7  
Growing Degree Days 4 (Base 50)    
Moisture  
Dew Point 39 °F    
Average Humidity 55    
Maximum Humidity 71    
Minimum Humidity 38    
Precipitation  
Precipitation 0.00 in 0.18 in 2.32 in (1929)
Month to date precipitation 5.94 4.75  
Year to date precipitation 8.18 10.40  
Snow  
Snow 0.00 in 0.00 in - ()
Month to date snowfall 0.0 0.1  
Since 1 July snowfall 0.0 0.1  
Snow Depth 0.00 in    
Sea Level Pressure  
Sea Level Pressure 30.28 in    
Wind  
Wind Speed 9 mph (East)    
Max Wind Speed 18 mph    
Max Gust Speed 23 mph    
Visibility 8 miles    
Events      
T = Trace of Precipitation, MM = Missing Value Source: NWS Daily Summary

Daily Weather History Graph

Daily Weather History Graph

Search for Another Location

Airport or City:

Trip Planner

Search our weather history database for the weather conditions in past years. The results will help you decide how hot, cold, wet, or windy it might be!

Date:

Astronomy

Feb. 26, 2012 Rise Set
Actual Time 6:23 AM CST 5:49 PM CST
Civil Twilight 5:58 AM CST 6:13 PM CST
Nautical Twilight 5:30 AM CST 6:41 PM CST
Astronomical Twilight 5:02 AM CST 7:09 PM CST
Moon 8:41 AM CST (2/26) 10:20 PM CST (2/26)
Length of Visible Light 12h 14m
Length of Day
11h 25m
Waxing Crescent, 21% of the Moon is Illuminated
Feb 26
Waxing Crescent
Feb 29
First Quarter
Mar 8
Full
Mar 14
Last Quarter
Mar 22
New

Hourly Weather History & Observations

Time (CST) Temp. Dew Point Humidity Pressure Visibility Wind Dir Wind Speed Gust Speed Precip Events Conditions
12:56 AM 48.9 °F 39.9 °F 71% 30.30 in 10.0 mi Calm Calm - N/A   Mostly Cloudy
1:56 AM 50.0 °F 33.1 °F 52% 30.28 in 10.0 mi East 4.6 mph - N/A   Scattered Clouds
2:56 AM 51.1 °F 36.0 °F 56% 30.28 in 10.0 mi Calm Calm - N/A   Overcast
3:56 AM 51.1 °F 33.1 °F 50% 30.27 in 10.0 mi ENE 4.6 mph - N/A   Overcast
4:56 AM 52.0 °F 30.9 °F 45% 30.28 in 10.0 mi ENE 5.8 mph - N/A   Mostly Cloudy
5:56 AM 51.1 °F 33.1 °F 50% 30.30 in 10.0 mi ENE 3.5 mph - N/A   Overcast
6:56 AM 51.1 °F 30.9 °F 46% 30.30 in 10.0 mi ENE 8.1 mph - N/A   Overcast
7:56 AM 53.1 °F 28.9 °F 40% 30.32 in 10.0 mi East 9.2 mph - N/A   Overcast
8:56 AM 54.0 °F 28.9 °F 38% 30.33 in 10.0 mi ESE 10.4 mph - N/A   Overcast
9:56 AM 55.9 °F 33.1 °F 42% 30.33 in 10.0 mi ESE 12.7 mph - N/A   Overcast
10:56 AM 59.0 °F 37.0 °F 44% 30.33 in 10.0 mi East 16.1 mph 21.9 mph N/A   Overcast
11:56 AM 57.9 °F 39.0 °F 49% 30.32 in 10.0 mi East 11.5 mph - N/A   Overcast
12:56 PM 57.9 °F 41.0 °F 53% 30.30 in 10.0 mi East 9.2 mph - N/A   Overcast
1:56 PM 57.9 °F 42.1 °F 56% 30.28 in 10.0 mi East 11.5 mph - N/A   Overcast
2:56 PM 57.0 °F 44.1 °F 62% 30.27 in 7.0 mi East 6.9 mph - N/A   Overcast
3:56 PM 57.0 °F 44.1 °F 62% 30.26 in 7.0 mi East 10.4 mph - N/A   Overcast
4:56 PM 57.0 °F 43.0 °F 59% 30.26 in 7.0 mi East 8.1 mph - N/A   Overcast
5:11 PM 55.4 °F 42.8 °F 63% 30.26 in 7.0 mi East 5.8 mph - N/A   Overcast
5:56 PM 57.0 °F 42.1 °F 57% 30.27 in 7.0 mi East 10.4 mph - N/A   Overcast
6:53 PM 55.4 °F 39.2 °F 54% 30.26 in 7.0 mi East 10.4 mph - N/A   Overcast
6:56 PM 55.9 °F 39.9 °F 55% 30.26 in 7.0 mi East 10.4 mph - N/A   Overcast
7:05 PM 55.4 °F 39.2 °F 54% 30.26 in 7.0 mi East 9.2 mph - N/A   Overcast
7:40 PM 55.4 °F 39.2 °F 54% 30.27 in 7.0 mi East 11.5 mph - N/A   Overcast
7:56 PM 55.0 °F 39.9 °F 57% 30.26 in 7.0 mi East 12.7 mph - N/A   Overcast
8:56 PM 55.0 °F 41.0 °F 59% 30.28 in 7.0 mi East 11.5 mph - N/A   Overcast
9:56 PM 54.0 °F 42.1 °F 64% 30.29 in 7.0 mi East 11.5 mph - N/A   Overcast
10:56 PM 54.0 °F 44.1 °F 69% 30.27 in 8.0 mi East 10.4 mph - N/A   Overcast
11:44 PM 53.6 °F 44.6 °F 72% 30.26 in 7.0 mi East 9.2 mph - N/A   Overcast
11:56 PM 53.1 °F 45.0 °F 74% 30.27 in 7.0 mi ESE 12.7 mph - N/A   Overcast